Location: Ab? ar R?sh Ba?r?
(24.1861°N, 32.8847°E)
Time: 23:48:29
(UTC+00:00)

IRIS - Pass Details

Date: 24 October 2021
Orbit: 279 x 2614 km, 41.2° (Epoch: 05 December)

Event Time Altitude Azimuth Distance (km) Brightness Sun altitude
Rises 16:02:13 0° 307° (NW) 1,973 8.4 -11.5°
Reaches altitude 10° 16:04:08 10° 308° (NW) 1,102 7.0 -12.0°
Maximum altitude 16:06:25 82° 36° (NE) 287 3.3 -12.5°
Enters shadow 16:07:49 22° 123° (ESE) 716 5.0 -12.8°
